Location: Lecco
(45.8566°N, 9.3977°E)
Time: 04:58:10
(UTC+02:00)

Transit 4A - Pass Details

Date: 21 August 2020
Orbit: 863 x 982 km, 66.8° (Epoch: 23 September)

Event Time Altitude Azimuth Distance (km) Brightness Sun altitude
Rises 12:46:41 0° 315° (NW) 3,613 10.7 55.0°
Reaches altitude 10° 12:52:13 10° 355° (N) 2,701 10.1 55.3°
Maximum altitude 12:53:17 10° 4° (N) 2,677 10.1 55.3°
Drops below altitude 10° 12:54:20 10° 14° (NNE) 2,712 10.1 55.4°
Sets 12:59:58 0° 54° (NE) 3,681 10.9 55.6°
